WetterOnline ( https://www.wetteronline.de )

Wetter aktuell Trier

Aktuelles Wetter: Trier/Petrisberg (273m)

6-stündlich | Neueste Meldungen
Ortszeit Temperatur Wetter
So, 22.05. 20:00 20.9° C bedeckt
So, 22.05. 14:00 22.4° C leicht bewölkt
So, 22.05. 8:00 10.8° C leicht bewölkt
So, 22.05. 2:00 11.1° C wolkenlos
Sa, 21.05. 20:00 20.0° C leicht bewölkt
Sa, 21.05. 14:00 19.5° C leicht bewölkt
Sa, 21.05. 8:00 11.5° C wolkig
Sa, 21.05. 2:00 12.0° C leicht bewölkt
Ortszeit Temperatur Wetter
So, 22.05. 20:00 20.9° C bedeckt
So, 22.05. 19:50 20.9° C bedeckt
So, 22.05. 19:40 21.6° C bedeckt
So, 22.05. 19:30 22.3° C bedeckt
So, 22.05. 19:20 22.3° C bedeckt
So, 22.05. 19:10 22.3° C bedeckt
So, 22.05. 19:00 22.5° C bedeckt
So, 22.05. 18:30 22.8° C bedeckt
So, 22.05. 18:00 23.2° C bedeckt
So, 22.05. 17:30 23.4° C bewölkt
So, 22.05. 17:00 23.4° C bedeckt
Ortszeit Relative Feuchte Sichtweite
So, 22.05. 20:00 49% 45 km
So, 22.05. 14:00 31% 35 km
So, 22.05. 8:00 85% 35 km
So, 22.05. 2:00 82% 50 km
Sa, 21.05. 20:00 43% >70 km
Sa, 21.05. 14:00 46% 65 km
Sa, 21.05. 8:00 84% 35 km
Sa, 21.05. 2:00 80% 50 km
Ortszeit Relative Feuchte Sichtweite
So, 22.05. 20:00 49% 45 km
So, 22.05. 19:50 49% -
So, 22.05. 19:40 49% -
So, 22.05. 19:30 40% 60 km
So, 22.05. 19:20 40% -
So, 22.05. 19:10 40% -
So, 22.05. 19:00 40% >70 km
So, 22.05. 18:30 39% 65 km
So, 22.05. 18:00 35% 60 km
So, 22.05. 17:30 31% >70 km
So, 22.05. 17:00 31% >70 km
Ortszeit Niederschlagsmenge Niederschlagsart
So, 22.05. 20:00 0.1 l/m2 in 12 Std. Regen
So, 22.05. 14:00 0.0 l/m2 in 6 Std. -
So, 22.05. 8:00 0.0 l/m2 in 12 Std. -
So, 22.05. 2:00 0.0 l/m2 in 6 Std. -
Sa, 21.05. 20:00 0.0 l/m2 in 12 Std. -
Sa, 21.05. 14:00 0.0 l/m2 in 6 Std. -
Sa, 21.05. 8:00 0.0 l/m2 in 12 Std. -
Sa, 21.05. 2:00 0.0 l/m2 in 6 Std. -
Ortszeit Niederschlagsmenge Niederschlagsart
So, 22.05. 20:00 0.1 l/m2 in 1 Std. Regen
So, 22.05. 19:50 keine Meldung -
So, 22.05. 19:40 keine Meldung -
So, 22.05. 19:30 0.0 l/m2 in 1 Std. -
So, 22.05. 19:20 keine Meldung -
So, 22.05. 19:10 keine Meldung -
So, 22.05. 19:00 0.0 l/m2 in 1 Std. -
So, 22.05. 18:30 0.0 l/m2 in 1 Std. -
So, 22.05. 18:00 0.0 l/m2 in 1 Std. -
So, 22.05. 17:30 0.0 l/m2 in 1 Std. -
So, 22.05. 17:00 0.0 l/m2 in 1 Std. -
Ortszeit Stärke Spitze Richtung
km/h Bft. km/h Grad Sektor
So, 22.05. 20:00 11 2 26 210° SW
So, 22.05. 14:00 7 2 18 40° NO
So, 22.05. 8:00 4 1 11 270° W
So, 22.05. 2:00 4 1 18 30° NO
Sa, 21.05. 20:00 7 2 32 280° W
Sa, 21.05. 14:00 14 3 29 260° W
Sa, 21.05. 8:00 11 2 14 220° SW
Sa, 21.05. 2:00 11 2 50 240° SW
Ortszeit Stärke Spitze Richtung
km/h Bft. km/h Grad Sektor
So, 22.05. 20:00 11 2 15 210° SW
So, 22.05. 19:50 11 2 - 210° SW
So, 22.05. 19:40 9 2 - 190° S
So, 22.05. 19:30 4 1 14 10° N
So, 22.05. 19:20 4 1 - 10° N
So, 22.05. 19:10 7 2 - 50° NO
So, 22.05. 19:00 7 2 14 40° NO
So, 22.05. 18:30 9 2 13 50° NO
So, 22.05. 18:00 4 1 14 100° O
So, 22.05. 17:30 7 2 14 40° NO
So, 22.05. 17:00 7 2 14 30° NO
Ortszeit Untergrenze Bedeckung Gattung
total tief tief mittel hoch
So, 22.05. 20:00 3000 m 8/8 8/8 - - -
So, 22.05. 14:00 8400 m 7/8 0/8 - - -
So, 22.05. 8:00 8400 m 6/8 0/8 - - -
So, 22.05. 2:00 - 0/8 0/8 - - -
Sa, 21.05. 20:00 7800 m 8/8 0/8 - - -
Sa, 21.05. 14:00 1470 m 3/8 3/8 - - -
Sa, 21.05. 8:00 840 m 7/8 3/8 - - -
Sa, 21.05. 2:00 660 m 3/8 3/8 - - -
Ortszeit Bedeckungsgrad in Achtel und Wolkenuntergrenze
So, 22.05. 20:00 8(3000m) 8(3900m)
So, 22.05. 19:50 8(3000m) 8(3900m)
So, 22.05. 19:40 8
So, 22.05. 19:30 8(3000m)
So, 22.05. 19:20 8(3000m)
So, 22.05. 19:10 8
So, 22.05. 19:00 8(3300m)
So, 22.05. 18:30 5(3600m) 7(4500m) 8(5100m)
So, 22.05. 18:00 5(5400m) 8(6000m) 8(7500m)
So, 22.05. 17:30 4(3900m) 8(7800m) 8(9000m)
So, 22.05. 17:00 8(3600m)
Ortszeit Luftdruck NN (hPa) Tendenz (hPa in 3 Std.)
So, 22.05. 20:00 1011 - 1,2
So, 22.05. 14:00 1013 - 2,2
So, 22.05. 8:00 1018 - 0,3
So, 22.05. 2:00 1020 - 0,8
Sa, 21.05. 20:00 1020 - 1,4
Sa, 21.05. 14:00 1023 - 0,7
Sa, 21.05. 8:00 1024 + 0,6
Sa, 21.05. 2:00 1023 + 1,9
Ortszeit Luftdruck NN (hPa) Tendenz (hPa in 3 Std.)
So, 22.05. 20:00 1011 - 1,2
So, 22.05. 19:50 1011 keine Meldung
So, 22.05. 19:40 1011 keine Meldung
So, 22.05. 19:30 1011 - 1,8
So, 22.05. 19:20 1011 keine Meldung
So, 22.05. 19:10 1010 keine Meldung
So, 22.05. 19:00 1010 - 2,4
So, 22.05. 18:30 1010 - 2,4
So, 22.05. 18:00 1011 - 2,0
So, 22.05. 17:30 1011 - 1,5
So, 22.05. 17:00 1012 - 1,4
Ortszeit Schneehöhe (cm)
So, 22.05. 20:00 0
So, 22.05. 14:00 0
So, 22.05. 8:00 0
So, 22.05. 2:00 0
Sa, 21.05. 20:00 0
Sa, 21.05. 14:00 0
Sa, 21.05. 8:00 0
Sa, 21.05. 2:00 0
Ortszeit Schneehöhe (cm)
So, 22.05. 20:00 0
So, 22.05. 19:50 0
So, 22.05. 19:40 0
So, 22.05. 19:30 0
So, 22.05. 19:20 0
So, 22.05. 19:10 0
So, 22.05. 19:00 0
So, 22.05. 18:30 0
So, 22.05. 18:00 0
So, 22.05. 17:30 0
So, 22.05. 17:00 0
Link zu dieser Seite / Seite empfehlen

Das Wetter in ...